Weather History for KF44 - October, 2012

Change the Weather History Date:

Saturday, October 20, 2012

  Actual Average (KTYR) Record (KTYR)
Temperature  
Mean Temperature 63 °F 66 °F  
Max Temperature 85 °F 77 °F 92 °F (1977)
Min Temperature 44 °F 55 °F 29 °F (1976)
Degree Days  
Heating Degree Days 2 3  
Month to date heating degree days 28  
Since 1 July heating degree days 33  
Cooling Degree Days 0 3  
Month to date cooling degree days 100  
Year to date cooling degree days 2364  
Growing Degree Days 13 (Base 50)    
Moisture  
Dew Point 54 °F    
Average Humidity 72    
Maximum Humidity 95    
Minimum Humidity 53    
Precipitation  
Precipitation 0.00 in 0.18 in 1.62 in (1993)
Month to date precipitation 3.00  
Year to date precipitation 35.60  
Snow  
Snow - - - ()
Month to date snowfall  
Since 1 July snowfall  
Since 1 September snowfall  
Snow Depth -    
Sea Level Pressure  
Sea Level Pressure 29.87 in    
Wind  
Wind Speed 4 mph ()    
Max Wind Speed 16 mph    
Max Gust Speed 22 mph    
Visibility 10.0 miles    
Events      
T = Trace of Precipitation, MM = Missing Value Source: Averaged Metar Reports

Daily Weather History Graph

Daily Weather History Graph

Search for Another Location

Airport or City:

Trip Planner

Search our weather history database for the weather conditions in past years. The results will help you decide how hot, cold, wet, or windy it might be!

Date:

Astronomy

Oct. 20, 2012 Rise Set
Actual Time 7:30 AM CDT 6:44 PM CDT
Civil Twilight 7:06 AM CDT 7:09 PM CDT
Nautical Twilight 6:37 AM CDT 7:37 PM CDT
Astronomical Twilight 6:09 AM CDT 8:06 PM CDT
Moon 12:57 PM CDT (10/20) 11:40 PM CDT (10/20)
Length of Visible Light 12h 03m
Length of Day
11h 13m
Waxing Crescent, 34% of the Moon is Illuminated
Oct 20
Waxing Crescent
Oct 21
First Quarter
Oct 29
Full
Nov 6
Last Quarter
Nov 13
New

Hourly Weather History & Observations

Time (CDT) Temp. Heat Index Dew Point Humidity Pressure Visibility Wind Dir Wind Speed Gust Speed Precip Events Conditions
12:15 AM 47.5 °F - 44.2 °F 89% 29.93 in 10.0 mi Calm Calm - N/A   Clear
12:35 AM 47.5 °F - 44.4 °F 89% 29.93 in 10.0 mi Calm Calm - N/A   Clear
12:55 AM 47.1 °F - 44.6 °F 91% 29.92 in 10.0 mi Calm Calm - N/A   Clear
1:15 AM 47.1 °F - 44.2 °F 90% 29.92 in 10.0 mi Calm Calm - N/A   Clear
1:35 AM 46.6 °F - 44.2 °F 92% 29.92 in 10.0 mi Calm Calm - N/A   Clear
1:55 AM 46.4 °F - 44.2 °F 92% 29.91 in 10.0 mi Calm Calm - N/A   Clear
2:15 AM 46.2 °F - 43.7 °F 91% 29.91 in 10.0 mi Calm Calm - N/A   Clear
2:35 AM 45.5 °F - 43.2 °F 92% 29.91 in 10.0 mi Calm Calm - N/A   Clear
2:55 AM 45.7 °F - 43.5 °F 92% 29.91 in 10.0 mi Calm Calm - N/A   Clear
3:15 AM 46.4 °F - 43.9 °F 91% 29.91 in 10.0 mi Calm Calm - N/A   Clear
3:35 AM 46.6 °F - 43.9 °F 90% 29.90 in 10.0 mi Calm Calm - N/A   Clear
3:55 AM 45.7 °F - 43.9 °F 93% 29.89 in 10.0 mi Calm Calm - N/A   Clear
4:15 AM 45.0 °F - 43.7 °F 95% 29.89 in 10.0 mi Calm Calm - N/A   Clear
4:35 AM 45.5 °F - 43.5 °F 93% 29.89 in 10.0 mi Calm Calm - N/A   Clear
4:55 AM 45.5 °F - 43.3 °F 92% 29.89 in 10.0 mi Calm Calm - N/A   Clear
5:15 AM 45.0 °F - 43.2 °F 93% 29.90 in 10.0 mi Calm Calm - N/A   Clear
5:35 AM 44.4 °F - 42.4 °F 93% 29.90 in 7.0 mi Calm Calm - N/A   Clear
5:55 AM 44.2 °F - 42.4 °F 93% 29.90 in 10.0 mi Calm Calm - N/A   Clear
6:15 AM 45.1 °F - 42.8 °F 91% 29.91 in 10.0 mi Calm Calm - N/A   Clear
6:35 AM 45.1 °F - 43.2 °F 93% 29.91 in 10.0 mi Calm Calm - N/A   Clear
6:55 AM 44.6 °F - 42.6 °F 93% 29.91 in 10.0 mi Calm Calm - N/A   Clear
7:15 AM 44.4 °F - 42.3 °F 92% 29.91 in 10.0 mi Calm Calm - N/A   Clear
7:35 AM 44.8 °F - 43.0 °F 93% 29.91 in 10.0 mi Calm Calm - N/A   Clear
7:55 AM 45.1 °F - 43.0 °F 92% 29.91 in 10.0 mi Calm Calm - N/A   Clear
8:15 AM 46.6 °F - 43.7 °F 90% 29.92 in 10.0 mi Calm Calm - N/A   Clear
8:35 AM 49.3 °F - 45.1 °F 86% 29.92 in 10.0 mi Calm Calm - N/A   Clear
8:55 AM 53.2 °F - 46.8 °F 79% 29.92 in 10.0 mi Calm Calm - N/A   Clear
9:15 AM 56.8 °F - 48.4 °F 73% 29.93 in 10.0 mi SSE 3.5 mph - N/A   Clear
9:35 AM 59.7 °F - 50.2 °F 71% 29.93 in 10.0 mi South 5.8 mph - N/A   Clear
9:55 AM 62.4 °F - 51.8 °F 68% 29.93 in 10.0 mi South 5.8 mph - N/A   Clear
10:15 AM 65.1 °F - 53.1 °F 65% 29.93 in 10.0 mi South 10.4 mph - N/A   Clear
10:35 AM 67.5 °F - 54.5 °F 63% 29.93 in 10.0 mi South 5.8 mph - N/A   Clear
10:55 AM 69.8 °F - 55.9 °F 61% 29.92 in 10.0 mi South 8.1 mph - N/A   Clear
11:15 AM 72.0 °F - 57.0 °F 59% 29.92 in 10.0 mi South 9.2 mph 18.4 mph N/A   Clear
11:35 AM 73.6 °F - 56.7 °F 55% 29.91 in 10.0 mi South 10.4 mph 17.3 mph N/A   Clear
11:55 AM 74.8 °F - 56.8 °F 53% 29.91 in 10.0 mi South 9.2 mph 17.3 mph N/A   Clear
12:15 PM 76.1 °F - 57.9 °F 53% 29.90 in 10.0 mi South 11.5 mph - N/A   Clear
12:35 PM 77.2 °F - 59.0 °F 53% 29.89 in 10.0 mi South 8.1 mph 18.4 mph N/A   Clear
12:55 PM 78.3 °F - 60.4 °F 54% 29.88 in 10.0 mi SSW 9.2 mph 17.3 mph N/A   Clear
1:15 PM 79.5 °F - 61.3 °F 54% 29.87 in 10.0 mi South 13.8 mph - N/A   Clear
1:35 PM 80.2 °F 81.4 °F 62.1 °F 54% 29.86 in 10.0 mi SSE 15.0 mph - N/A   Clear
1:55 PM 81.1 °F 82.3 °F 62.6 °F 53% 29.84 in 10.0 mi South 9.2 mph 17.3 mph N/A   Clear
2:15 PM 80.4 °F 81.7 °F 63.0 °F 55% 29.83 in 10.0 mi South 8.1 mph 17.3 mph N/A   Mostly Cloudy
2:35 PM 81.0 °F 82.5 °F 64.0 °F 56% 29.82 in 10.0 mi South 12.7 mph 21.9 mph N/A   Mostly Cloudy
2:55 PM 81.1 °F 82.7 °F 64.0 °F 56% 29.81 in 10.0 mi South 9.2 mph 18.4 mph N/A   Mostly Cloudy
3:15 PM 81.1 °F 82.7 °F 64.2 °F 56% 29.81 in 10.0 mi South 12.7 mph 20.7 mph N/A   Overcast
3:35 PM 81.7 °F 83.3 °F 64.4 °F 56% 29.80 in 10.0 mi South 15.0 mph 20.7 mph N/A   Mostly Cloudy
3:55 PM 82.2 °F 83.7 °F 64.0 °F 54% 29.80 in 10.0 mi South 13.8 mph 19.6 mph N/A   Mostly Cloudy
4:15 PM 81.3 °F 82.7 °F 63.7 °F 55% 29.79 in 10.0 mi South 10.4 mph - N/A   Mostly Cloudy
4:35 PM 82.2 °F 83.7 °F 64.0 °F 54% 29.79 in 10.0 mi South 16.1 mph 21.9 mph N/A   Scattered Clouds
4:55 PM 82.0 °F 83.6 °F 64.2 °F 55% 29.79 in 10.0 mi South 12.7 mph 18.4 mph N/A   Scattered Clouds
5:15 PM 81.7 °F 83.3 °F 64.4 °F 56% 29.79 in 10.0 mi South 9.2 mph 16.1 mph N/A   Clear
5:35 PM 81.3 °F 82.9 °F 64.4 °F 56% 29.79 in 10.0 mi South 13.8 mph 18.4 mph N/A   Clear
5:55 PM 80.6 °F 82.3 °F 64.4 °F 58% 29.79 in 10.0 mi South 9.2 mph - N/A   Clear
6:15 PM 79.7 °F - 64.6 °F 60% 29.79 in 10.0 mi SSE 9.2 mph - N/A   Clear
6:35 PM 78.6 °F - 64.6 °F 62% 29.79 in 10.0 mi South 6.9 mph - N/A   Clear
6:55 PM 77.4 °F - 64.4 °F 64% 29.79 in 10.0 mi SSE 8.1 mph - N/A   Clear
7:15 PM 76.3 °F - 63.9 °F 65% 29.79 in 10.0 mi South 8.1 mph - N/A   Clear
7:35 PM 75.4 °F - 63.7 °F 67% 29.80 in 10.0 mi South 9.2 mph - N/A   Clear
7:55 PM 74.8 °F - 63.5 °F 68% 29.80 in 10.0 mi SSE 6.9 mph - N/A   Clear
8:15 PM 74.3 °F - 63.3 °F 68% 29.80 in 10.0 mi SSE 9.2 mph - N/A   Clear
8:35 PM 73.8 °F - 63.0 °F 69% 29.81 in 10.0 mi South 10.4 mph - N/A   Clear
8:55 PM 73.6 °F - 62.8 °F 69% 29.81 in 10.0 mi SSE 10.4 mph - N/A   Clear
9:15 PM 73.8 °F - 61.9 °F 66% 29.81 in 10.0 mi South 13.8 mph 18.4 mph N/A   Clear
9:35 PM 73.6 °F - 61.0 °F 65% 29.82 in 10.0 mi South 11.5 mph 17.3 mph N/A   Clear
9:55 PM 73.0 °F - 60.6 °F 65% 29.82 in 10.0 mi South 11.5 mph - N/A   Clear
10:15 PM 72.7 °F - 60.6 °F 66% 29.82 in 10.0 mi South 13.8 mph 18.4 mph N/A   Clear
10:35 PM 72.5 °F - 60.8 °F 67% 29.83 in 10.0 mi South 9.2 mph 17.3 mph N/A   Clear
10:55 PM 72.3 °F - 60.8 °F 67% 29.84 in 10.0 mi South 11.5 mph 17.3 mph N/A   Scattered Clouds
11:15 PM 72.1 °F - 61.2 °F 68% 29.83 in 10.0 mi South 11.5 mph 20.7 mph N/A   Scattered Clouds
11:35 PM 71.8 °F - 61.7 °F 70% 29.84 in 10.0 mi South 12.7 mph - N/A   Scattered Clouds
11:55 PM 71.8 °F - 62.4 °F 72% 29.84 in 10.0 mi South 13.8 mph 20.7 mph N/A   Mostly Cloudy